Simultaneous Nadir Overpasses (SNOs) Predictions

Prediction of SNOs between TERRA and METOP-C Satellite Orbit:

Table of predicted SNOs for the next 14.0 days since TLE Epoch: 3/2/2025
Index Date (TERRA) Time (TERRA) Lat,Lon (TERRA) SZA (TERRA ) Date (METOP-C) Time (METOP-C) Lat,Lon (METOP-C) SZA (METOP-C ) Distance(km) Time Diff (sec)
1 03/03/2025 08:48:20 -79.06,-123.21 94.28 03/03/2025 08:47:07 -78.51,-120.63 94.77 82.30 73
2 03/03/2025 09:23:38 45.92, 173.26 122.66 03/03/2025 09:23:23 45.87, 172.89 122.41 29.67 15
3 03/03/2025 10:12:41 -45.07, -18.76 56.81 03/03/2025 10:13:45 -44.98, -19.43 57.02 53.75 64
4 03/05/2025 22:27:46 79.30,-146.67 85.01 03/05/2025 22:26:34 78.72,-144.27 84.49 82.61 72
5 03/05/2025 23:03:08 -45.92, 148.34 58.06 03/05/2025 23:02:53 -45.87, 148.01 58.28 26.40 15
6 03/05/2025 23:52:16 45.07, -43.70 122.48 03/05/2025 23:53:21 44.95, -44.32 122.32 50.86 65
7 03/08/2025 12:05:55 -81.75,-144.26 92.17 03/08/2025 12:04:42 -81.07,-143.05 92.65 77.45 73
8 03/08/2025 12:42:40 45.79, 123.45 121.30 03/08/2025 12:42:27 45.75, 123.15 121.11 23.59 13
9 03/08/2025 13:31:45 -45.07, -68.62 58.24 03/08/2025 13:32:51 -44.97, -69.21 58.38 47.80 66
10 03/11/2025 01:44:34 81.98,-147.29 89.19 03/11/2025 01:43:21 81.32,-147.64 88.74 73.61 73
11 03/11/2025 02:22:06 -45.73, 98.56 59.39 03/11/2025 02:21:54 -45.66, 98.31 59.54 20.86 12
12 03/11/2025 03:11:17 45.07, -93.55 121.06 03/11/2025 03:12:26 44.99, -94.11 120.92 45.40 69
13 03/13/2025 15:21:44 -77.76,-128.34 85.33 03/13/2025 15:20:31 -77.40,-130.24 85.76 60.71 73
14 03/13/2025 16:01:35 45.55, 73.69 120.02 03/13/2025 16:01:26 45.48, 73.48 119.90 18.33 9



Historial Predications of SNOs between TERRA and METOP-C
